Powrót do katalogu

STARLINK-2699

AktywnyŁącznośćVLEO
NORAD 48433·PAYLOAD·🇺🇸 United States

Wystrzelony May 9, 2021 z Cape Canaveral Space Force Station

Loading…

Następne Przeloty (najbliższe 24 godziny)

TLE

ŚwieżeSource: CelesTrak SupGP

Epoka: Sep 14, 2026, 21:38 UTC

1 48433C 21040F   26257.90187500 -.00030775  00000+0 -98963-3 0  2579
2 48433  53.1612 352.0697 0001161  86.5691 123.1748 15.31717929    10

Śledź STARLINK-2699 w czasie rzeczywistym z AllMySat

Download on the App Store